GW1859 Weather Reports


Display with metric or nautical units.
time (UTC)temp
F
wind
direction
speed
MPH
gust
MPH
rain 1hr
in
rain 24hr
in
rain mn
in
humidity
%
barometer
mb
20260905185556 101 170 1.0 4.0 0.00 0.00 0.00 34 1015.6
20260905185056 99 87 1.0 2.0 0.00 0.00 0.00 36 1015.6
20260905184551 101 180 2.0 6.0 0.00 0.00 0.00 35 1015.5
20260905184050 103 276 4.0 7.0 0.00 0.00 0.00 32 1015.7
20260905183549 102 336 2.0 3.0 0.00 0.00 0.00 34 1015.7
20260905183045 98 205 0.0 3.0 0.00 0.00 0.00 37 1015.8
20260905182545 99 214 0.0 7.0 0.00 0.00 0.00 37 1016.0
20260905182044 100 311 2.0 3.0 0.00 0.00 0.00 37 1016.0
20260905181539 101 249 2.0 3.0 0.00 0.00 0.00 35 1016.0
20260905181038 101 122 0.0 4.0 0.00 0.00 0.00 35 1015.9
20260905180533 100 98 0.0 4.0 0.00 0.00 0.00 36 1015.9
20260905180029 99 280 3.0 5.0 0.00 0.00 0.00 36 1016.0
20260905175527 100 54 2.0 3.0 0.00 0.00 0.00 35 1016.0
20260905175023 100 112 2.0 6.0 0.00 0.00 0.00 35 1016.0
20260905174519 101 262 4.0 8.0 0.00 0.00 0.00 35 1016.1
20260905174014 101 242 0.0 4.0 0.00 0.00 0.00 35 1016.4
20260905173510 100 276 2.0 7.0 0.00 0.00 0.00 36 1016.1
20260905173006 101 143 1.0 6.0 0.00 0.00 0.00 35 1016.3
20260905172503 101 290 0.0 4.0 0.00 0.00 0.00 36 1016.4
20260905172000 100 192 1.0 5.0 0.00 0.00 0.00 36 1016.3
20260905171456 100 239 2.0 5.0 0.00 0.00 0.00 37 1016.5
20260905170952 100 107 1.0 5.0 0.00 0.00 0.00 36 1016.3
20260905170448 101 274 4.0 4.0 0.00 0.00 0.00 36 1016.5
20260905165948 99 142 0.0 2.0 0.00 0.00 0.00 38 1016.5
20260905165443 99 300 3.0 3.0 0.00 0.00 0.00 38 1016.5
20260905164938 98 237 2.0 4.0 0.00 0.00 0.00 38 1016.3
20260905164438 99 292 3.0 6.0 0.00 0.00 0.00 38 1016.3
20260905163932 98 277 2.0 3.0 0.00 0.00 0.00 39 1016.4
20260905163429 97 34 1.0 3.0 0.00 0.00 0.00 40 1016.4
20260905162925 97 223 2.0 3.0 0.00 0.00 0.00 41 1016.4
20260905162420 95 265 4.0 6.0 0.00 0.00 0.00 42 1016.5
20260905161915 96 282 5.0 6.0 0.00 0.00 0.00 41 1016.3
20260905161414 96 202 5.0 8.0 0.00 0.00 0.00 40 1016.4
20260905160912 96 44 2.0 3.0 0.00 0.00 0.00 41 1016.5
20260905160407 96 28 2.0 5.0 0.00 0.00 0.00 42 1016.6
20260905155907 95 231 4.0 4.0 0.00 0.00 0.00 43 1016.3
20260905155406 94 249 3.0 5.0 0.00 0.00 0.00 44 1016.3
20260905154905 94 252 1.0 5.0 0.00 0.00 0.00 44 1016.3
20260905154401 93 184 2.0 5.0 0.00 0.00 0.00 45 1016.1
20260905153856 94 200 1.0 4.0 0.00 0.00 0.00 44 1016.5
20260905153353 92 339 0.0 4.0 0.00 0.00 0.00 46 1016.3
20260905152852 92 235 2.0 8.0 0.00 0.00 0.00 46 1016.4
20260905152351 92 217 2.0 6.0 0.00 0.00 0.00 47 1016.2
20260905151847 91 167 1.0 4.0 0.00 0.00 0.00 47 1016.2
20260905151343 91 218 2.0 4.0 0.00 0.00 0.00 48 1016.3
20260905150843 90 201 4.0 6.0 0.00 0.00 0.00 49 1016.1
20260905150337 90 231 2.0 5.0 0.00 0.00 0.00 50 1016.2
20260905145835 89 284 2.0 7.0 0.00 0.00 0.00 51 1016.1
20260905145334 89 194 2.0 4.0 0.00 0.00 0.00 50 1016.1
20260905144833 88 173 2.0 6.0 0.00 0.00 0.00 52 1016.0
20260905144329 88 237 6.0 6.0 0.00 0.00 0.00 53 1016.0
20260905143827 87 209 3.0 6.0 0.00 0.00 0.00 54 1015.8
20260905143322 87 183 1.0 10.0 0.00 0.00 0.00 54 1016.2
20260905142821 86 182 0.0 6.0 0.00 0.00 0.00 55 1015.9
20260905142315 85 268 2.0 5.0 0.00 0.00 0.00 56 1015.9
20260905141812 85 281 1.0 4.0 0.00 0.00 0.00 57 1015.6
20260905141307 85 209 3.0 6.0 0.00 0.00 0.00 57 1015.8
20260905140802 84 300 2.0 4.0 0.00 0.00 0.00 58 1016.0
20260905140302 84 129 2.0 4.0 0.00 0.00 0.00 58 1015.5
20260905135801 83 45 2.0 4.0 0.00 0.00 0.00 60 1015.8
20260905135257 83 173 0.0 5.0 0.00 0.00 0.00 60 1015.8
20260905134758 82 249 1.0 3.0 0.00 0.00 0.00 61 1016.0
20260905134256 82 241 4.0 4.0 0.00 0.00 0.00 62 1015.9
20260905133751 81 217 0.0 4.0 0.00 0.00 0.00 62 1015.8
20260905133246 81 346 0.0 3.0 0.00 0.00 0.00 64 1015.7
20260905132745 80 161 0.0 4.0 0.00 0.00 0.00 64 1015.7
20260905132242 80 139 0.0 3.0 0.00 0.00 0.00 65 1015.8
20260905131742 80 302 0.0 2.0 0.00 0.00 0.00 66 1015.5
20260905131238 79 278 0.0 2.0 0.00 0.00 0.00 66 1015.7
20260905130738 79 37 0.0 2.0 0.00 0.00 0.00 67 1015.8
20260905130237 78 353 0.0 2.0 0.00 0.00 0.00 68 1015.4
20260905125732 78 301 0.0 2.0 0.00 0.00 0.00 69 1015.4
20260905125227 77 343 0.0 2.0 0.00 0.00 0.00 70 1015.4
20260905124724 77 328 0.0 1.0 0.00 0.00 0.00 70 1015.4
20260905124219 77 322 0.0 1.0 0.00 0.00 0.00 70 1015.1
20260905123714 77 343 0.0 2.0 0.00 0.00 0.00 71 1015.4
20260905123211 76 317 0.0 0.0 0.00 0.00 0.00 72 1015.2
20260905122710 76 18 0.0 2.0 0.00 0.00 0.00 72 1015.3
20260905122205 76 320 1.0 1.0 0.00 0.00 0.00 72 1015.3
20260905121700 76 19 0.0 1.0 0.00 0.00 0.00 72 1015.1
20260905121156 76 341 0.0 0.0 0.00 0.00 0.00 72 1015.1
20260905120655 76 333 0.0 1.0 0.00 0.00 0.00 72 1015.1
20260905120150 76 50 0.0 0.0 0.00 0.00 0.00 71 1015.2
20260905115649 76 297 0.0 0.0 0.00 0.00 0.00 71 1015.2
20260905115145 76 242 0.0 2.0 0.00 0.00 0.00 71 1015.2
20260905114644 76 304 0.0 1.0 0.00 0.00 0.00 71 1015.0
20260905114142 76 295 0.0 1.0 0.00 0.00 0.00 71 1015.1
20260905113637 76 309 0.0 1.0 0.00 0.00 0.00 71 1015.0
20260905113133 76 343 0.0 1.0 0.00 0.00 0.00 71 1014.9
20260905112627 76 339 1.0 2.0 0.00 0.00 0.00 71 1015.0
20260905112124 76 316 0.0 1.0 0.00 0.00 0.00 71 1015.0
20260905111624 76 322 0.0 1.0 0.00 0.00 0.00 70 1015.0
20260905111123 77 324 0.0 1.0 0.00 0.00 0.00 70 1015.2
20260905110622 77 317 0.0 1.0 0.00 0.00 0.00 70 1014.9
20260905110117 77 269 0.0 1.0 0.00 0.00 0.00 70 1015.1
20260905105617 77 296 0.0 2.0 0.00 0.00 0.00 69 1014.9
20260905105116 77 22 0.0 1.0 0.00 0.00 0.00 69 1014.9
20260905104612 78 327 1.0 2.0 0.00 0.00 0.00 68 1015.1
20260905104107 78 309 0.0 2.0 0.00 0.00 0.00 68 1015.0
20260905103602 78 169 0.0 1.0 0.00 0.00 0.00 68 1015.0
20260905103059 78 256 0.0 1.0 0.00 0.00 0.00 68 1015.0
20260905102554 78 328 1.0 2.0 0.00 0.00 0.00 68 1014.9
20260905102050 78 353 0.0 2.0 0.00 0.00 0.00 68 1015.1
20260905101548 78 229 0.0 2.0 0.00 0.00 0.00 67 1015.3
20260905101047 78 287 0.0 3.0 0.00 0.00 0.00 68 1015.2
20260905100544 78 237 2.0 2.0 0.00 0.00 0.00 68 1015.1
20260905100043 78 230 0.0 2.0 0.00 0.00 0.00 69 1015.3
20260905095537 77 326 0.0 2.0 0.00 0.00 0.00 69 1015.1
20260905095033 77 336 0.0 2.0 0.00 0.00 0.00 69 1015.4
20260905094528 77 316 0.0 2.0 0.00 0.00 0.00 69 1015.1
20260905094027 77 333 0.0 1.0 0.00 0.00 0.00 70 1015.1
20260905093521 77 333 0.0 1.0 0.00 0.00 0.00 69 1015.5
20260905093019 77 326 0.0 2.0 0.00 0.00 0.00 69 1015.5
20260905092518 77 352 0.0 1.0 0.00 0.00 0.00 69 1015.5
20260905092014 78 333 0.0 1.0 0.00 0.00 0.00 68 1015.3
20260905091513 78 324 1.0 1.0 0.00 0.00 0.00 68 1015.4
20260905091008 78 326 0.0 1.0 0.00 0.00 0.00 68 1015.4
20260905090502 78 310 0.0 1.0 0.00 0.00 0.00 67 1015.6
20260905090002 78 347 0.0 1.0 0.00 0.00 0.00 67 1015.5
20260905085501 79 283 0.0 1.0 0.00 0.00 0.00 66 1015.4
20260905084957 79 343 0.0 1.0 0.00 0.00 0.00 66 1015.4
20260905084456 79 313 0.0 2.0 0.00 0.00 0.00 65 1015.4
20260905083951 79 286 1.0 2.0 0.00 0.00 0.00 65 1015.5
20260905083447 80 320 0.0 1.0 0.00 0.00 0.00 65 1015.4
20260905082942 80 287 1.0 3.0 0.00 0.00 0.00 64 1015.3
20260905082438 80 275 1.0 2.0 0.00 0.00 0.00 64 1015.3
20260905081933 80 269 0.0 1.0 0.00 0.00 0.00 64 1015.5
20260905081434 80 49 1.0 2.0 0.00 0.00 0.00 64 1015.5
20260905080932 80 337 0.0 1.0 0.00 0.00 0.00 64 1015.2
20260905080427 80 268 0.0 2.0 0.00 0.00 0.00 63 1015.4
20260905075926 80 322 0.0 2.0 0.00 0.00 0.00 63 1015.4
20260905075421 81 193 0.0 2.0 0.00 0.00 0.00 63 1015.4
20260905074920 81 332 0.0 2.0 0.00 0.00 0.00 62 1015.2
20260905074416 81 240 2.0 2.0 0.00 0.00 0.00 62 1015.4
20260905073911 81 327 0.0 2.0 0.00 0.00 0.00 62 1015.3
20260905073407 81 239 2.0 2.0 0.00 0.00 0.00 62 1015.2
20260905072902 81 314 0.0 3.0 0.00 0.00 0.00 62 1015.2
20260905072356 81 317 0.0 2.0 0.00 0.00 0.00 62 1015.3
20260905071853 81 1 0.0 2.0 0.00 0.00 0.00 62 1015.0
20260905071349 81 22 2.0 2.0 0.00 0.00 0.00 63 1015.1
20260905070849 81 321 0.0 2.0 0.00 0.00 0.00 63 1015.1
20260905070345 81 37 0.0 2.0 0.00 0.00 0.00 63 1014.9
20260905065844 81 317 0.0 2.0 0.00 0.00 0.00 63 1015.3
20260905065343 81 337 1.0 2.0 0.00 0.00 0.00 63 1014.9
20260905064838 81 28 0.0 2.0 0.00 0.00 0.00 63 1015.2
20260905064334 81 328 1.0 2.0 0.00 0.00 0.00 64 1014.9
20260905063832 81 48 0.0 2.0 0.00 0.00 0.00 64 1014.9
20260905063328 81 41 2.0 2.0 0.00 0.00 0.00 64 1014.9
20260905062825 81 12 0.0 2.0 0.00 0.00 0.00 64 1014.7
20260905062325 81 35 0.0 2.0 0.00 0.00 0.00 64 1014.8
20260905061820 81 10 0.0 2.0 0.00 0.00 0.00 63 1014.6
20260905061319 81 343 0.0 2.0 0.00 0.00 0.00 64 1014.7
20260905060814 81 35 2.0 2.0 0.00 0.00 0.00 63 1014.7
20260905060311 81 15 1.0 2.0 0.00 0.00 0.00 63 1014.7
20260905055809 81 15 0.0 1.0 0.00 0.00 0.00 63 1014.8
20260905055306 81 19 1.0 1.0 0.00 0.00 0.00 63 1014.9
20260905054805 81 359 1.0 1.0 0.00 0.00 0.00 63 1014.9
20260905054302 81 35 1.0 2.0 0.00 0.00 0.00 63 1014.7
20260905053800 81 35 0.0 2.0 0.00 0.00 0.00 63 1014.7
20260905053256 82 5 0.0 1.0 0.00 0.00 0.00 63 1014.8
20260905052755 82 33 0.0 2.0 0.00 0.00 0.00 63 1014.7
20260905052250 82 21 0.0 2.0 0.00 0.00 0.00 62 1014.7
20260905051750 82 15 0.0 1.0 0.00 0.00 0.00 62 1014.6
20260905051247 82 49 0.0 1.0 0.00 0.00 0.00 62 1014.8
20260905050743 82 11 0.0 1.0 0.00 0.00 0.00 62 1014.9
20260905050239 82 44 0.0 1.0 0.00 0.00 0.00 62 1014.9
20260905045739 82 50 0.0 1.0 0.00 0.00 0.00 62 1014.9
20260905045234 82 48 0.0 1.0 0.00 0.00 0.00 62 1015.0
20260905044729 82 337 1.0 1.0 0.00 0.00 0.00 62 1014.9
20260905044225 82 346 0.0 1.0 0.00 0.00 0.00 62 1015.0
20260905043723 82 5 0.0 1.0 0.00 0.00 0.00 62 1015.3
20260905043218 82 15 0.0 1.0 0.00 0.00 0.00 62 1015.2
20260905042718 82 22 0.0 1.0 0.00 0.00 0.00 61 1015.5
20260905042217 82 23 0.0 1.0 0.00 0.00 0.00 61 1015.2
20260905041713 82 338 0.0 1.0 0.00 0.00 0.00 61 1015.1
20260905041209 83 333 0.0 1.0 0.00 0.00 0.00 61 1015.2
20260905040703 83 7 0.0 1.0 0.00 0.00 0.00 60 1015.1
20260905040203 83 25 0.0 0.0 0.00 0.00 0.00 60 1014.9
20260905035703 83 352 0.0 1.0 0.00 0.00 0.00 59 1015.0
20260905035159 83 15 0.0 1.0 0.00 0.00 0.00 59 1015.1
20260905034655 83 25 0.0 0.0 0.00 0.00 0.00 59 1015.0
20260905034155 83 339 0.0 1.0 0.00 0.00 0.00 59 1015.0
20260905033654 84 333 0.0 1.0 0.00 0.00 0.00 59 1015.0
20260905033149 84 22 0.0 0.0 0.00 0.00 0.00 58 1015.0
20260905032650 84 25 0.0 1.0 0.00 0.00 0.00 58 1015.0
20260905032150 84 333 0.0 0.0 0.00 0.00 0.00 58 1015.3
20260905031646 84 333 0.0 0.0 0.00 0.00 0.00 57 1015.1
20260905031141 85 309 0.0 0.0 0.00 0.00 0.00 57 1015.1
20260905030636 85 326 0.0 2.0 0.00 0.00 0.00 57 1015.0
20260905030132 85 345 0.0 1.0 0.00 0.00 0.00 57 1015.1
20260905025631 85 343 0.0 1.0 0.00 0.00 0.00 57 1014.9
20260905025128 85 9 0.0 0.0 0.00 0.00 0.00 56 1014.9
20260905024623 85 0 0.0 1.0 0.00 0.00 0.00 56 1015.0
20260905024118 85 343 0.0 1.0 0.00 0.00 0.00 56 1014.8
20260905023614 85 18 1.0 1.0 0.00 0.00 0.00 56 1014.7
20260905023114 85 22 0.0 1.0 0.00 0.00 0.00 56 1014.3
20260905022613 85 25 0.0 0.0 0.00 0.00 0.00 56 1014.5
20260905022108 85 315 0.0 1.0 0.00 0.00 0.00 56 1014.2
20260905021608 85 304 0.0 1.0 0.00 0.00 0.00 56 1013.9
20260905021103 85 297 0.0 1.0 0.00 0.00 0.00 55 1013.8
20260905020603 85 306 0.0 1.0 0.00 0.00 0.00 55 1014.0
20260905020058 86 333 0.0 1.0 0.00 0.00 0.00 54 1013.6
20260905015556 86 333 0.0 0.0 0.00 0.00 0.00 54 1013.6
20260905015051 87 343 0.0 0.0 0.00 0.00 0.00 53 1013.7
20260905014545 87 306 0.0 1.0 0.00 0.00 0.00 52 1013.7
20260905014041 88 336 0.0 1.0 0.00 0.00 0.00 51 1013.6
20260905013537 88 354 0.0 1.0 0.00 0.00 0.00 50 1013.7
20260905013033 89 326 0.0 1.0 0.00 0.00 0.00 50 1013.4
20260905012527 89 333 0.0 1.0 0.00 0.00 0.00 49 1013.4
20260905012024 89 354 1.0 1.0 0.00 0.00 0.00 48 1013.5
20260905011520 90 349 0.0 2.0 0.00 0.00 0.00 47 1013.5
20260905011015 90 325 0.0 1.0 0.00 0.00 0.00 47 1013.5
20260905010515 91 352 0.0 1.0 0.00 0.00 0.00 46 1013.3
20260905010012 91 315 0.0 1.0 0.00 0.00 0.00 46 1013.3
20260905005507 92 316 0.0 1.0 0.00 0.00 0.00 45 1013.2
20260905005002 92 329 0.0 1.0 0.00 0.00 0.00 44 1013.2
20260905004457 93 321 0.0 2.0 0.00 0.00 0.00 44 1013.1
20260905003952 93 337 1.0 2.0 0.00 0.00 0.00 43 1013.2
20260905003448 94 336 0.0 2.0 0.00 0.00 0.00 42 1013.2
20260905002943 94 343 0.0 1.0 0.00 0.00 0.00 41 1013.1
20260905002438 95 342 2.0 2.0 0.00 0.00 0.00 41 1013.2
20260905001937 96 54 1.0 2.0 0.00 0.00 0.00 40 1013.1
20260905001432 96 75 1.0 3.0 0.00 0.00 0.00 40 1013.5
20260905000927 97 0 0.0 2.0 0.00 0.00 0.00 39 1013.2
20260905000424 98 40 2.0 2.0 0.00 0.00 0.00 38 1013.2
20260904235918 98 69 0.0 2.0 0.00 0.00 0.00 37 1013.2
20260904235414 99 50 1.0 2.0 0.00 0.00 0.00 37 1013.2
20260904234914 100 70 1.0 3.0 0.00 0.00 0.00 37 1013.1
20260904234414 100 38 0.0 2.0 0.00 0.00 0.00 37 1013.2
20260904233909 100 229 1.0 2.0 0.00 0.00 0.00 36 1013.3
20260904233405 100 182 0.0 2.0 0.00 0.00 0.00 35 1013.2
20260904232901 101 80 0.0 2.0 0.00 0.00 0.00 35 1013.2
20260904232358 101 4 2.0 2.0 0.00 0.00 0.00 35 1013.1
20260904231853 101 89 0.0 3.0 0.00 0.00 0.00 35 1013.1
20260904231348 102 356 1.0 3.0 0.00 0.00 0.00 35 1013.1
20260904230843 101 16 1.0 3.0 0.00 0.00 0.00 35 1013.1
20260904230342 102 36 1.0 2.0 0.00 0.00 0.00 34 1013.1
20260904225837 103 13 0.0 3.0 0.00 0.00 0.00 34 1013.2
20260904225336 102 232 0.0 2.0 0.00 0.00 0.00 35 1013.0
20260904224835 101 38 1.0 2.0 0.00 0.00 0.00 36 1013.0
20260904224331 101 312 2.0 4.0 0.00 0.00 0.00 35 1013.2
20260904223830 101 1 3.0 3.0 0.00 0.00 0.00 35 1013.1
20260904223325 102 10 2.0 3.0 0.00 0.00 0.00 35 1013.0
20260904222821 103 231 2.0 3.0 0.00 0.00 0.00 34 1012.9
20260904222316 102 302 0.0 3.0 0.00 0.00 0.00 35 1013.0
20260904221816 101 44 1.0 4.0 0.00 0.00 0.00 36 1013.1
20260904221316 102 53 2.0 4.0 0.00 0.00 0.00 34 1013.0
20260904220811 102 295 1.0 2.0 0.00 0.00 0.00 35 1013.0
20260904220310 102 31 2.0 3.0 0.00 0.00 0.00 36 1013.1
20260904215806 103 200 2.0 4.0 0.00 0.00 0.00 35 1013.0
20260904215301 103 29 0.0 4.0 0.00 0.00 0.00 33 1013.2
20260904214757 103 88 2.0 4.0 0.00 0.00 0.00 34 1013.1
20260904214252 103 231 2.0 4.0 0.00 0.00 0.00 34 1013.2
20260904213750 103 318 2.0 4.0 0.00 0.00 0.00 34 1013.1
20260904213246 103 54 0.0 5.0 0.00 0.00 0.00 34 1013.0
20260904212742 103 300 0.0 3.0 0.00 0.00 0.00 35 1013.3
20260904212241 102 131 0.0 2.0 0.00 0.00 0.00 35 1013.6
20260904211737 103 64 2.0 5.0 0.00 0.00 0.00 34 1013.5
20260904211231 103 76 2.0 4.0 0.00 0.00 0.00 34 1013.5
20260904210726 102 28 3.0 7.0 0.00 0.00 0.00 35 1013.5
20260904210221 103 19 0.0 14.0 0.00 0.00 0.00 34 1013.5
20260904205717 103 345 1.0 2.0 0.00 0.00 0.00 35 1013.7
20260904205213 102 138 1.0 4.0 0.00 0.00 0.00 35 1013.6
20260904204710 102 128 1.0 3.0 0.00 0.00 0.00 35 1013.6
20260904204206 101 22 2.0 4.0 0.00 0.00 0.00 36 1013.7
20260904203701 101 229 5.0 6.0 0.00 0.00 0.00 37 1013.9
20260904203158 101 80 2.0 5.0 0.00 0.00 0.00 36 1013.7
20260904202654 103 228 5.0 5.0 0.00 0.00 0.00 35 1013.7
20260904202150 102 269 0.0 3.0 0.00 0.00 0.00 36 1014.0
20260904201650 101 154 1.0 3.0 0.00 0.00 0.00 36 1013.9
20260904201144 101 25 0.0 3.0 0.00 0.00 0.00 37 1013.9
20260904200644 102 164 4.0 4.0 0.00 0.00 0.00 36 1013.8
20260904200139 102 359 1.0 3.0 0.00 0.00 0.00 35 1013.8
20260904195638 101 358 2.0 5.0 0.00 0.00 0.00 36 1013.8
20260904195132 100 15 0.0 3.0 0.00 0.00 0.00 37 1013.9
20260904194631 100 110 0.0 5.0 0.00 0.00 0.00 37 1013.8
20260904194127 100 306 0.0 4.0 0.00 0.00 0.00 38 1014.3
20260904193627 100 257 3.0 4.0 0.00 0.00 0.00 37 1014.1
20260904193123 100 300 0.0 2.0 0.00 0.00 0.00 37 1014.1
20260904192623 100 54 2.0 6.0 0.00 0.00 0.00 38 1014.1
20260904192119 100 120 0.0 7.0 0.00 0.00 0.00 38 1014.1
20260904191615 101 195 1.0 2.0 0.00 0.00 0.00 38 1014.0
20260904191112 100 17 0.0 3.0 0.00 0.00 0.00 39 1014.3
20260904190607 100 265 3.0 9.0 0.00 0.00 0.00 38 1014.2
20260904190103 100 139 2.0 3.0 0.00 0.00 0.00 38 1014.3